Flag for Spain Weather past 2 weeks in Valencia, Spain

Now
46 °F

Clear.


Feels Like: 45 °F
Forecast: 61 / 81 °F
Wind: 3 mph from Northwest

Location: Valencia / Aeropuerto

Current Time: Mar 1, 2015 at 4:33:01 AM

Latest Report: Mar 1, 2015 at 3:30 AM


Visibility: 10 mi

Pressure: 30.15 "Hg

Humidity: 76%

Dew point: 39 °F

Location of ValenciaLocation

Historic Weather in Valencia — Graph

°F

Valencia temperature yesterday

Maximum temperature yesterday: 63 °F (at 1:00 PM)
Minimum temperature yesterday: 39 °F (at 7:30 AM)
Average temperature yesterday: 53 °F

Past Weeks' High & Low Weather Summary

 TemperatureHumidityPressure
High73 °F (Feb 26, 2:30 PM)100% (Feb 17, 4:00 AM)30.51 "Hg (Feb 17, 4:00 AM)
Low37 °F (Feb 20, 5:30 AM)20% (Feb 24, 5:00 PM)29.62 "Hg (Feb 21, 2:30 PM)
Average56 °F55%30.08 "Hg
* Reported Feb 14 3:00 AM — Mar 1 3:00 AM, Valencia, Weather by CustomWeather, © 2015

Note: Actual official high and low records may vary slightly from our data, if they occured in-between our weather recording intervals... More about our weather records

Advertising

Valencia weather history for previous 24 hours

 ConditionsComfort  
Time TempWeatherWind HumidityBarometerVisibility
3:00 AM
Sun, Mar 1
46 °FClear.2 mph76%30.15 "Hg10 mi
2:30 AM48 °FClear.1 mph71%30.15 "Hg10 mi
2:00 AM48 °FClear.7 mph71%30.15 "Hg10 mi
1:30 AM48 °FClear.3 mph71%30.15 "Hg10 mi
1:00 AM48 °FClear.1 mph71%30.15 "Hg10 mi
12:30 AM50 °FClear.1 mph67%30.15 "Hg10 mi
12:00 AM50 °FClear.5 mph67%30.15 "Hg10 mi
11:30 PM
Sat, Feb 28
50 °FClear.6 mph67%30.15 "Hg10 mi
11:00 PM52 °FClear.No wind62%30.15 "Hg10 mi
10:30 PM52 °FClear.No wind67%30.15 "Hg10 mi
10:00 PM54 °FClear.No wind63%30.15 "Hg10 mi
9:30 PM54 °FClear.2 mph63%30.15 "Hg10 mi
9:00 PM55 °FClear.5 mph59%30.15 "Hg10 mi
8:30 PM55 °FClear.2 mph63%30.15 "Hg10 mi
8:00 PM57 °FPassing clouds.3 mph59%30.15 "HgN/A
7:30 PM57 °FPassing clouds.1 mph51%30.12 "HgN/A
7:00 PM57 °FPassing clouds.3 mph51%30.12 "HgN/A
6:30 PM57 °FPassing clouds.5 mph51%30.12 "HgN/A
6:00 PM57 °FPassing clouds.6 mph48%30.12 "HgN/A
5:30 PM57 °FPassing clouds.7 mph44%30.09 "HgN/A
5:00 PM59 °FPassing clouds.9 mph39%30.09 "HgN/A
4:30 PM61 °FPassing clouds.10 mph36%30.09 "HgN/A
4:00 PM61 °FPassing clouds.10 mph36%30.09 "HgN/A
3:30 PM61 °FPassing clouds.12 mph36%30.09 "HgN/A
3:00 PM61 °FPassing clouds.12 mph36%30.12 "HgN/A
2:30 PM63 °FPassing clouds.13 mph34%30.12 "HgN/A
2:00 PM63 °FPassing clouds.9 mph32%30.12 "HgN/A
1:30 PM63 °FPassing clouds.7 mph32%30.15 "HgN/A
1:00 PM63 °FPassing clouds.2 mph30%30.15 "HgN/A
12:30 PM61 °FSunny.3 mph31%30.18 "Hg10 mi
12:00 PM61 °FSunny.3 mph31%30.18 "Hg10 mi
11:30 AM59 °FPassing clouds.3 mph31%30.18 "HgN/A
11:00 AM57 °FPassing clouds.5 mph33%30.18 "HgN/A
10:30 AM55 °FSunny.2 mph36%30.18 "Hg10 mi
10:00 AM54 °FSunny.1 mph41%30.18 "Hg10 mi
9:30 AM50 °FSunny.1 mph47%30.21 "Hg10 mi
9:00 AM45 °FSunny.1 mph57%30.21 "Hg10 mi
8:30 AM41 °FPassing clouds.3 mph66%30.18 "HgN/A
8:00 AM39 °FSunny.3 mph70%30.18 "Hg10 mi
7:30 AM39 °FPassing clouds.5 mph70%30.18 "HgN/A
7:00 AM41 °FClear.2 mph66%30.15 "Hg10 mi
6:30 AM43 °FPassing clouds.3 mph61%30.15 "HgN/A
6:00 AM41 °FClear.2 mph66%30.15 "Hg10 mi
5:30 AM45 °FClear.1 mph57%30.15 "Hg10 mi
5:00 AM46 °FClear.1 mph53%30.15 "Hg10 mi
4:30 AM48 °FPassing clouds.3 mph46%30.15 "HgN/A
4:00 AM45 °FClear.1 mph57%30.15 "Hg10 mi
Weather by CustomWeather, © 2015

See weather overviewHow to use our weather pages